Location: São Paulo
(23.5507°S, 46.6334°W)
Time: 17:13:56
(UTC-03:00)

A-11 Canister half - Pass Details

Date: 09 February 2026
Orbit: 1524 x 1683 km, 47.3° (Epoch: 13 March)

Event Time Altitude Azimuth Distance (km) Brightness Sun altitude
Exits shadow 04:14:57 13° 345° (NNW) 3,656 10.6 -21.2°
Maximum altitude 04:23:27 45° 52° (NE) 2,163 9.9 -19.5°
Drops below altitude 10° 04:32:54 10° 120° (ESE) 3,957 12.5 -17.5°
Sets 04:36:16 0° 126° (SE) 4,950 13.3 -16.8°
